Flag Weather past 2 weeks in Pasco, Washington, U.S.A.

Now
54 °F

Clear.


Feels Like: 48 °F
Forecast: 18 / 47 °F
Wind: 23 mph from West

Location: Tri-Cities Airport

Current Time: Nov 28, 2014 at 10:25:22 PM

Latest Report: Nov 28, 2014 at 9:53 PM


Visibility: 10 mi

Pressure: 29.35 "Hg

Humidity: 72%

Dew point: 45 °F

Location of PascoLocation

Historic Weather in Pasco — Graph

°F

Pasco temperature yesterday

Maximum temperature yesterday: 65 °F (at 1:53 PM)
Minimum temperature yesterday: 36 °F (at 3:53 AM)
Average temperature yesterday: 54 °F

Past Weeks' High & Low Weather Summary

 TemperatureHumidityPressure
High65 °F (Nov 27, 1:53 PM)100% (Nov 16, 7:53 PM)30.77 "Hg (Nov 16, 7:53 PM)
Low11 °F (Nov 15, 4:53 AM)47% (Nov 28, 12:53 PM)29.31 "Hg (Nov 28, 6:53 PM)
Average34 °F85%30.19 "Hg
* Reported Nov 13 8:53 PM — Nov 28 8:53 PM, Pasco, Weather by CustomWeather, © 2014

Note: Actual official high and low records may vary slightly from our data, if they occured in-between our weather recording intervals... More about our weather records

Advertising

Pasco weather history for previous 24 hours

 ConditionsComfort  
Time TempWeatherWind HumidityBarometerVisibility
8:53 PM
Nov 28
54 °FPassing clouds.16 mph74%29.35 "Hg10 mi
7:53 PM56 °FLight rain. Overcast.18 mph70%29.34 "Hg10 mi
6:53 PM60 °FClear.30 mph53%29.31 "Hg10 mi
5:53 PM59 °FClear.25 mph58%29.33 "Hg10 mi
4:53 PM57 °FPassing clouds.26 mph67%29.34 "Hg10 mi
3:53 PM60 °FBroken clouds.35 mph58%29.35 "Hg10 mi
2:53 PM63 °FPartly sunny.23 mph47%29.38 "Hg10 mi
1:53 PM63 °FScattered clouds.22 mph47%29.40 "Hg10 mi
12:53 PM63 °FPartly sunny.18 mph47%29.44 "Hg10 mi
11:53 AM62 °FPassing clouds.17 mph50%29.46 "Hg10 mi
10:53 AM60 °FMostly cloudy.13 mph56%29.52 "Hg10 mi
9:53 AM59 °FOvercast.10 mph58%29.53 "Hg10 mi
8:53 AM59 °FScattered clouds.6 mph60%29.56 "Hg10 mi
7:53 AM58 °FCloudy.9 mph65%29.58 "Hg10 mi
6:53 AM55 °FPassing clouds.6 mph72%29.59 "Hg10 mi
5:53 AM57 °FClear.18 mph69%29.59 "Hg10 mi
4:53 AM57 °FPartly cloudy.9 mph67%29.63 "Hg10 mi
3:53 AM54 °FOvercast.7 mph74%29.67 "Hg10 mi
2:53 AM57 °FOvercast.10 mph64%29.68 "Hg10 mi
1:53 AM60 °FOvercast.5 mph58%29.71 "Hg10 mi
12:53 AM56 °FPartly cloudy.3 mph72%29.73 "Hg10 mi
11:53 PM
Nov 27
53 °FPassing clouds.7 mph80%29.76 "Hg10 mi
10:53 PM54 °FOvercast.6 mph77%29.78 "Hg10 mi
Weather by CustomWeather, © 2014

See weather overviewHow to use our weather pages